Notices

What's New in latest Release from April 7th, 2021:

- Updated Glossary, including Speed of Maximum Gust, and Total Hourly Precipitation

- Updated national and regional climate services offices contacts and prices information

- Addition of station inventory lists for 1981-2010, 1971-2000, and 1961-1990 Normals.

If you haven't already, please take our survey and provide feedback about our website: https://eccc.sondage-survey.ca/f/LanguageSelection.aspx?s=442ca660-fcf1-47c0-95a9-59707d6fd709

Hourly Data Report for October 27, 2019

PINAWA
MANITOBA
Current Station Operator: ECCC - MSC

50°10'38.020" N
96°03'53.000" W
268.00 m
503B1ER
71448
WEA

Download Data

Hourly Data (October 2019)
Hourly Data Report for October 27, 2019
TIME
LST
Temp Definition
°C
Dew Point Definition
°C
Rel Hum Definition
%
Precip. Amount Definition
mm

Wind Dir Definition
10's deg

Wind Spd Definition
km/h
Visibility Definition
km
Stn Press Definition
kPa
Hmdx Definition


Wind Chill Definition


Weather Definition


00:00 2.4 LegendMM LegendMM 0.0 31 18   97.67     LegendNANA
01:00 1.9 LegendMM LegendMM 0.0 32 22   97.71     LegendNANA
02:00 1.3 LegendMM LegendMM 0.0 31 19   97.76     LegendNANA
03:00 1.3 LegendMM LegendMM 0.0 30 18   97.85     LegendNANA
04:00 0.8 LegendMM LegendMM 0.0 30 19   97.88     LegendNANA
05:00 0.4 LegendMM LegendMM 0.0 30 19   97.92     LegendNANA
06:00 0.5 LegendMM LegendMM 0.0 30 16   97.95     LegendNANA
07:00 0.2 LegendMM LegendMM 0.0 30 19   97.98     LegendNANA
08:00 0.0 LegendMM LegendMM 0.0 29 18   98.03   -5 LegendNANA
09:00 -0.1 LegendMM LegendMM 0.0 29 16   98.06   -5 LegendNANA
10:00 0.1 LegendMM LegendMM 0.0 29 16   98.06     LegendNANA
11:00 0.2 LegendMM LegendMM 0.0 29 16   98.09     LegendNANA
12:00 0.0 LegendMM LegendMM 0.0 29 20   98.07   -5 LegendNANA
13:00 -0.1 LegendMM LegendMM 0.0 29 12   98.06   -4 LegendNANA
14:00 -0.3 LegendMM LegendMM 0.0 28 13   98.08   -4 LegendNANA
15:00 -0.5 LegendMM LegendMM 0.0 29 17   98.09   -5 LegendNANA
16:00 -0.5 LegendMM LegendMM 0.0 28 13   98.09   -5 LegendNANA
17:00 -1.3 LegendMM LegendMM 0.0 29 14   98.13   -6 LegendNANA
18:00 -2.1 LegendMM LegendMM 0.0 28 13   98.15   -7 LegendNANA
19:00 -2.5 LegendMM LegendMM 0.0 27 11   98.15   -7 LegendNANA
20:00 -2.6 LegendMM LegendMM 0.0 27 11   98.15   -7 LegendNANA
21:00 -2.7 LegendMM LegendMM 0.0 27 8   98.17   -6 LegendNANA
22:00 -2.6 LegendMM LegendMM 0.0 25 6   98.16   -5 LegendNANA
23:00 -2.4 LegendMM LegendMM 0.0 26 8   98.14   -6 LegendNANA

Notes on Data Quality.

Legend

  • E = Estimated
  • M = Missing
  • NA = Not Available*
  • [empty] = Indicates an unobserved value
Date modified: